Location: Prairie State College
(41.5244°N, 87.6382°W)
Time: 05:24:09
(UTC-05:00)

Amateur Radio Satellites - All Passes

Search period start: 05 September 2015 04:54
Search period end: 06 September 2015 04:54
Location: Prairie State College, 41.5244°N, 87.6382°W

Satellite Date Start Highest point End Downlink Frequencies (MHz)
Time Altitude Azimuth
Cosmos 2499 05 Sep 05:06:42 05:15:02 51° 286° (WNW) 05:23:36 435.465 / 435.565
HORYU 2 05 Sep 05:08:54 05:13:22 74° 285° (WNW) 05:17:47 437.375
CUBESAT XI-V 05 Sep 05:22:53 05:26:50 30° 69° (ENE) 05:30:51 437.345
STRAND 1 05 Sep 05:32:35 05:34:33 13° 60° (ENE) 05:36:47 437.568
VERMONT LUNAR 05 Sep 05:46:05 05:48:54 38° 197° (SSW) 05:51:40 437.305
AO-7 05 Sep 05:51:49 05:59:53 56° 294° (WNW) 06:07:52 29.400- 29.500
ISS 05 Sep 06:09:29 06:10:31 11° 131° (SE) 06:11:41 145.825
JAS-2 05 Sep 06:17:05 06:18:44 11° 309° (NW) 06:19:58 435.910
Cubesat XI-IV 05 Sep 06:18:11 06:22:21 24° 93° (E) 06:26:38 437.490
PHONESAT 2.4 05 Sep 06:24:00 06:27:25 76° 181° (S) 06:30:49 2401.200-2431.200
PRISM 05 Sep 06:55:39 06:59:34 47° 73° (ENE) 07:03:30 437.425
CUBESAT XI-V 05 Sep 07:00:21 07:04:16 27° 266° (W) 07:08:09 437.345
CUTE-I 05 Sep 07:00:55 07:06:10 58° 100° (E) 07:11:26 437.470
YUBILEINY 05 Sep 07:06:43 07:14:43 38° 70° (ENE) 07:22:47 435.215
STRAND 1 05 Sep 07:08:01 07:13:07 87° 255° (WSW) 07:18:15 437.568
AIST 1 05 Sep 07:37:25 07:41:35 61° 95° (E) 07:45:48
BRITE-PL 05 Sep 07:38:58 07:43:51 30° 93° (E) 07:48:52 437.365/2234.400
ISS 05 Sep 07:43:17 07:46:32 81° 328° (NNW) 07:49:48 145.825
GOMX 1 05 Sep 07:43:42 07:47:35 20° 89° (E) 07:51:36 467.674
AO-7 05 Sep 07:47:23 07:51:04 13° 315° (NW) 07:54:18 29.400- 29.500
HO-68 05 Sep 07:47:49 07:50:13 12° 84° (E) 07:53:11 435.675
Cosmos 2491 05 Sep 07:56:47 08:04:25 37° 87° (E) 08:12:14 435.465 / 435.565
Cubesat XI-IV 05 Sep 07:57:37 08:02:41 44° 290° (WNW) 08:07:43 437.490
PHONESAT 2.4 05 Sep 08:01:52 08:05:09 44° 197° (SSW) 08:08:24 2401.200-2431.200
SO-50 05 Sep 08:08:55 08:13:24 33° 47° (NE) 08:17:49 436.795
CANX-2 05 Sep 08:13:35 08:15:18 12° 88° (E) 08:17:14 2200.000
SEEDS 05 Sep 08:26:14 08:27:47 12° 88° (E) 08:29:33 437.485
PRISM 05 Sep 08:33:07 08:35:18 14° 270° (W) 08:37:19 437.425
COMPASS 1 05 Sep 08:39:28 08:41:24 13° 89° (E) 08:43:30 437.405
CUTE-I 05 Sep 08:42:03 08:45:51 20° 297° (WNW) 08:49:30 437.470
AAUSAT CUBESAT 2 05 Sep 08:45:20 08:47:07 13° 89° (E) 08:49:07 437.432
YUBILEINY 05 Sep 09:03:24 09:11:48 49° 270° (W) 09:20:02 435.215
PCSat 05 Sep 09:04:06 09:08:33 26° 47° (NE) 09:13:04 145.827
DOVE 4 05 Sep 09:09:56 09:15:18 76° 102° (ESE) 09:20:29 437.250
CUSAT 1 05 Sep 09:11:35 09:17:51 25° 64° (ENE) 09:24:29 437.405
UNISAT 6 05 Sep 09:13:08 09:15:25 14° 63° (ENE) 09:17:54 437.425
BRITE-PL 05 Sep 09:17:12 09:22:24 39° 290° (WNW) 09:27:38 437.365/2234.400
AIST 1 05 Sep 09:18:18 09:19:46 11° 294° (WNW) 09:21:02
CINEMA 3 05 Sep 09:19:23 09:24:04 41° 96° (E) 09:28:35 145.822/145.860
Cosmos 2504 05 Sep 09:19:31 09:27:00 35° 69° (ENE) 09:34:11 435.465 / 435.565
GOMX 1 05 Sep 09:20:40 09:26:04 56° 287° (WNW) 09:31:24 467.674
ISS 05 Sep 09:20:54 09:23:21 19° 344° (NNW) 09:25:47 145.825
HO-68 05 Sep 09:32:04 09:39:18 76° 104° (ESE) 09:46:30 435.675
CUTE 1.7 + AOD 2 05 Sep 09:32:34 09:36:49 90° 48° (NE) 09:41:01 437.475
TIGRISAT 05 Sep 09:38:03 09:41:42 23° 67° (ENE) 09:45:27 435.000
PHONESAT 2.4 05 Sep 09:40:52 09:42:33 13° 211° (SSW) 09:44:10 2401.200-2431.200
CANX-2 05 Sep 09:47:30 09:51:38 54° 286° (WNW) 09:55:43 2200.000
SO-50 05 Sep 09:49:30 09:53:57 34° 245° (WSW) 09:58:15 436.795
ZACube-1 05 Sep 09:51:45 09:55:08 22° 92° (E) 09:58:32 437.345
Cosmos 2491 05 Sep 09:52:46 10:01:08 48° 286° (WNW) 10:09:28 435.465 / 435.565
FUNcube-1 05 Sep 09:54:44 09:58:10 22° 92° (E) 10:01:37 145.935
QB50P1 05 Sep 09:56:14 09:57:52 12° 64° (ENE) 09:59:43 145.935-145.965
ANTELSAT 05 Sep 09:56:35 10:00:51 36° 71° (ENE) 10:05:12 437.575/2403.000
SEEDS 05 Sep 09:59:53 10:04:00 55° 286° (WNW) 10:08:03 437.485
AUBIESAT-1 05 Sep 10:05:35 10:10:00 41° 67° (ENE) 10:14:18 437.475
DELFI C3 05 Sep 10:07:30 10:11:00 29° 96° (E) 10:14:31 145.870
UWE-3 05 Sep 10:09:23 10:13:44 45° 98° (E) 10:17:58 435.000/436.395/437.385
CUBEBUG 2 05 Sep 10:12:56 10:17:34 65° 101° (E) 10:22:00 437.445
COMPASS 1 05 Sep 10:13:23 10:17:25 49° 286° (WNW) 10:21:24 437.405
DANDE 05 Sep 10:15:13 10:22:48 47° 73° (ENE) 10:31:00 436.750
M-CUBED/EXP-1 PRIME 05 Sep 10:15:35 10:20:18 62° 69° (ENE) 10:24:54 437.505
AAUSAT CUBESAT 2 05 Sep 10:19:04 10:23:05 51° 286° (WNW) 10:27:05 437.432
Oscar 11 05 Sep 10:32:50 10:37:10 86° 288° (WNW) 10:41:28 145.826/435.025
DX 1 05 Sep 10:35:14 10:37:09 13° 89° (E) 10:39:18 434.975-435.025
UKube-1 05 Sep 10:39:48 10:41:40 13° 89° (E) 10:43:46 .
BUGSAT 1 05 Sep 10:40:08 10:43:09 21° 67° (ENE) 10:46:19 437.445
UNISAT 6 05 Sep 10:46:59 10:51:40 69° 259° (WSW) 10:56:24 437.425
PCSat 05 Sep 10:47:01 10:52:19 52° 246° (WSW) 10:57:32 145.827
DOVE 4 05 Sep 10:49:17 10:52:25 15° 298° (WNW) 10:55:17 437.250
CUSAT 1 05 Sep 10:53:07 11:01:14 78° 263° (W) 11:09:19 437.405
DUCHIFAT 1 05 Sep 10:53:50 10:57:54 47° 73° (ENE) 11:02:02 145.980
CINEMA 3 05 Sep 10:57:03 11:01:00 23° 294° (WNW) 11:04:44 145.822/145.860
POLYITAN 1 05 Sep 10:57:24 11:01:35 56° 74° (ENE) 11:05:50 437.675
POPSAT HIP 1 05 Sep 10:57:57 11:02:06 55° 74° (ENE) 11:06:19 437.405
ISS 05 Sep 10:58:50 11:00:41 14° 4° (N) 11:02:32 145.825
CUBEBUG 1 05 Sep 11:03:51 11:04:21 10° 87° (E) 11:05:10 437.445
Cosmos 2504 05 Sep 11:11:31 11:19:32 50° 271° (W) 11:26:58 435.465 / 435.565
NANOSAT C BR1 05 Sep 11:13:04 11:17:20 82° 74° (ENE) 11:21:37 145.865
TIGRISAT 05 Sep 11:13:50 11:18:14 38° 263° (W) 11:22:37 435.000
QB50P2 05 Sep 11:16:10 11:20:27 88° 257° (WSW) 11:24:46 145.880/145.840
AISAT 05 Sep 11:16:32 11:20:14 25° 94° (E) 11:23:58 437.250
HO-68 05 Sep 11:20:59 11:26:24 23° 302° (WNW) 11:31:34 435.675
ESTCUBE 1 05 Sep 11:22:19 11:25:44 21° 93° (E) 11:29:16 437.505/2401.250
ZACube-1 05 Sep 11:27:32 11:31:36 34° 290° (WNW) 11:35:31 437.345
QB50P1 05 Sep 11:29:01 11:33:14 65° 259° (W) 11:37:31 145.935-145.965
HUMSAT D 05 Sep 11:29:55 11:34:09 80° 284° (WNW) 11:38:18 437.325/437.525
FUNcube-1 05 Sep 11:30:34 11:34:35 33° 290° (WNW) 11:38:26 145.935
ANTELSAT 05 Sep 11:33:54 11:37:44 24° 267° (W) 11:41:28 437.575/2403.000
AUBIESAT-1 05 Sep 11:41:05 11:44:48 22° 262° (W) 11:48:19 437.475
VELOX 1 05 Sep 11:42:47 11:47:05 45° 99° (E) 11:51:24 145.980
DELFI C3 05 Sep 11:42:51 11:45:55 21° 291° (WNW) 11:48:52 145.870
50 SAT 05 Sep 11:44:21 11:48:10 60° 100° (E) 11:51:55 437.505
UWE-3 05 Sep 11:46:45 11:49:56 18° 294° (WNW) 11:52:54 435.000/436.395/437.385
CUBEBUG 2 05 Sep 11:51:14 11:53:42 14° 297° (WNW) 11:55:56 437.445
M-CUBED/EXP-1 PRIME 05 Sep 11:52:31 11:55:24 15° 265° (W) 11:58:03 437.505
GONETS M04 05 Sep 11:55:59 12:01:29 18° 59° (ENE) 12:07:28
DANDE 05 Sep 11:58:27 12:05:56 42° 269° (W) 12:13:42 436.750
DX 1 05 Sep 12:09:30 12:13:50 58° 287° (WNW) 12:18:08 434.975-435.025
SPROUT 05 Sep 12:13:04 12:16:07 19° 92° (E) 12:19:17 437.525
UKube-1 05 Sep 12:13:57 12:18:13 57° 287° (WNW) 12:22:28 .
BUGSAT 1 05 Sep 12:14:44 12:18:26 32° 264° (W) 12:22:10 437.445
Oscar 19 05 Sep 12:31:30 12:35:44 27° 67° (ENE) 12:40:07 437.125/150
DUCHIFAT 1 05 Sep 12:31:31 12:34:01 15° 270° (W) 12:36:21 145.980
ISS 05 Sep 12:35:00 12:37:53 28° 24° (NNE) 12:40:46 145.825
POLYITAN 1 05 Sep 12:35:53 12:37:55 13° 271° (W) 12:39:44 437.675
POPSAT HIP 1 05 Sep 12:36:20 12:38:24 13° 271° (W) 12:40:14 437.405
CUBEBUG 1 05 Sep 12:36:52 12:41:18 73° 285° (WNW) 12:45:44 437.445
CUSAT 1 05 Sep 12:37:58 12:42:49 17° 278° (W) 12:47:12 437.405
AISAT 05 Sep 12:52:50 12:56:49 31° 291° (WNW) 13:00:44 437.250
TISAT 1 05 Sep 12:55:59 12:59:46 30° 96° (E) 13:03:35 437.305
JAS-2 05 Sep 12:57:40 13:01:28 15° 55° (NE) 13:05:38 435.910
ESTCUBE 1 05 Sep 12:58:35 13:02:44 36° 289° (WNW) 13:06:50 437.505/2401.250
BEESAT 3 05 Sep 12:59:57 13:02:43 18° 112° (ESE) 13:05:36 437.485
Cosmos 2499 05 Sep 13:07:52 13:11:08 13° 53° (NE) 13:14:54 435.465 / 435.565
AO-7 05 Sep 13:13:47 13:15:17 11° 42° (NE) 13:17:16 29.400- 29.500
BEESAT 2 05 Sep 13:19:25 13:22:34 22° 113° (ESE) 13:25:49 435.950
VELOX 1 05 Sep 13:20:14 13:23:19 18° 295° (WNW) 13:26:17 145.980
50 SAT 05 Sep 13:21:14 13:22:12 11° 296° (WNW) 13:22:59 437.505
SWISSCUBE 05 Sep 13:24:59 13:26:37 12° 88° (E) 13:28:32 437.505
ITAMSAT 1 05 Sep 13:41:32 13:45:59 31° 68° (ENE) 13:50:32 435.822/435.867
SPROUT 05 Sep 13:48:19 13:52:22 38° 288° (WNW) 13:56:21 437.525
GONETS M04 05 Sep 13:51:04 13:59:57 86° 82° (E) 14:08:49
Gurwin Techsat 1B 05 Sep 13:53:11 13:58:15 48° 71° (ENE) 14:03:22 435.225
ITUPSAT 1 05 Sep 14:04:13 14:08:16 28° 95° (E) 14:12:22 437.325
Oscar 19 05 Sep 14:10:08 14:14:57 38° 263° (W) 14:19:46 437.125/150
ISS 05 Sep 14:11:17 14:14:24 42° 221° (SW) 14:17:27 145.825
RS-15 05 Sep 14:24:10 14:33:10 33° 106° (ESE) 14:42:47 29.354- 29.394
AIST 2 05 Sep 14:31:10 14:34:39 26° 114° (ESE) 14:38:12 435.215
TISAT 1 05 Sep 14:31:57 14:35:24 23° 292° (WNW) 14:38:45 437.305
BEESAT 05 Sep 14:33:35 14:38:16 56° 100° (E) 14:42:57 436.000
HORYU 2 05 Sep 14:34:04 14:35:19 11° 62° (ENE) 14:36:49 437.375
BEESAT 3 05 Sep 14:36:29 14:40:22 41° 308° (NW) 14:44:16 437.485
JAS-2 05 Sep 14:37:36 14:45:17 66° 72° (ENE) 14:53:01 435.910
BEESAT 2 05 Sep 14:56:38 15:00:26 35° 310° (NW) 15:04:14 435.950
Cosmos 2499 05 Sep 14:58:03 15:06:34 65° 78° (ENE) 15:14:28 435.465 / 435.565
AO-7 05 Sep 14:58:24 15:06:11 47° 63° (ENE) 15:14:03 29.400- 29.500
SWISSCUBE 05 Sep 15:00:19 15:05:04 71° 285° (WNW) 15:09:49 437.505
ITAMSAT 1 05 Sep 15:20:49 15:25:27 33° 264° (W) 15:30:04 435.822/435.867
STARS 05 Sep 15:25:31 15:28:37 19° 92° (E) 15:31:49 437.465
Gurwin Techsat 1B 05 Sep 15:34:28 15:38:32 21° 268° (W) 15:42:29 435.225
ITUPSAT 1 05 Sep 15:41:56 15:46:10 31° 291° (WNW) 15:50:19 437.325
GONETS M04 05 Sep 15:49:52 15:55:48 19° 280° (W) 16:01:17
KKS-1 05 Sep 15:56:34 16:01:05 70° 102° (ESE) 16:05:33 437.445
HORYU 2 05 Sep 16:06:52 16:11:23 80° 257° (WSW) 16:15:55 437.375
AIST 2 05 Sep 16:09:13 16:13:06 33° 311° (NW) 16:16:58 435.215
BEESAT 05 Sep 16:12:39 16:15:42 17° 296° (WNW) 16:18:35 436.000
JAS-2 05 Sep 16:24:19 16:30:50 27° 270° (W) 16:37:09 435.910
RS-15 05 Sep 16:33:50 16:44:46 71° 308° (NW) 16:56:12 29.354- 29.394
CUTE-I 05 Sep 16:46:30 16:48:51 13° 60° (ENE) 16:51:27 437.470
MOZHAYETS 4 05 Sep 16:47:21 16:51:33 36° 97° (E) 16:55:46
AO-7 05 Sep 16:51:19 16:59:07 41° 262° (W) 17:06:49 29.400- 29.500
Cosmos 2499 05 Sep 16:52:18 16:59:03 26° 278° (W) 17:05:10 435.465 / 435.565
STARS 05 Sep 17:01:04 17:05:16 40° 289° (WNW) 17:09:23 437.465
O/OREOS (USA 219) 05 Sep 17:04:01 17:06:17 14° 100° (E) 17:08:45 437.305
KKS-1 05 Sep 17:35:08 17:37:11 13° 297° (WNW) 17:39:01 437.445
Cubesat XI-IV 05 Sep 17:40:10 17:45:03 39° 69° (ENE) 17:50:01 437.490
AIST 1 05 Sep 17:45:19 17:47:58 16° 69° (ENE) 17:50:48
Cosmos 2491 05 Sep 18:07:09 18:12:38 18° 59° (ENE) 18:18:33 435.465 / 435.565
HO-68 05 Sep 18:18:58 18:20:56 12° 50° (NE) 18:23:19 435.675
CUTE-I 05 Sep 18:22:57 18:28:17 86° 255° (WSW) 18:33:38 437.470
MOZHAYETS 4 05 Sep 18:25:01 18:28:35 22° 293° (WNW) 18:32:04
O/OREOS (USA 219) 05 Sep 18:40:47 18:45:15 57° 296° (WNW) 18:49:48 437.305
BRITE-PL 05 Sep 18:50:31 18:54:23 29° 68° (ENE) 18:58:38 437.365/2234.400
RS-15 05 Sep 18:50:34 18:59:50 28° 337° (NNW) 19:09:16 29.354- 29.394
GOMX 1 05 Sep 18:52:29 18:55:44 19° 64° (ENE) 18:59:18 467.674
CUBESAT XI-V 05 Sep 18:55:47 19:00:27 73° 102° (ESE) 19:05:08 437.345
CANX-2 05 Sep 19:08:16 19:08:55 10° 63° (ENE) 19:09:49 2200.000
STRAND 1 05 Sep 19:18:44 19:23:14 31° 95° (E) 19:27:47 437.568
Cubesat XI-IV 05 Sep 19:20:50 19:25:18 26° 266° (W) 19:29:42 437.490
AIST 1 05 Sep 19:21:46 19:25:55 43° 267° (W) 19:30:03
COMPASS 1 05 Sep 19:32:33 19:33:09 10° 63° (ENE) 19:34:00 437.405
HO-68 05 Sep 20:00:22 20:07:19 58° 69° (ENE) 20:14:22 435.675
Cosmos 2491 05 Sep 20:02:15 20:11:04 86° 82° (E) 20:19:54 435.465 / 435.565
YUBILEINY 05 Sep 20:07:46 20:15:46 43° 88° (E) 20:23:58 435.215
PRISM 05 Sep 20:12:34 20:16:42 78° 102° (ESE) 20:20:51 437.425
DOVE 4 05 Sep 20:15:13 20:19:57 74° 75° (ENE) 20:25:01 437.250
CINEMA 3 05 Sep 20:20:48 20:25:12 38° 70° (ENE) 20:29:49 145.822/145.860
CUTE 1.7 + AOD 2 05 Sep 20:25:09 20:29:23 64° 75° (ENE) 20:33:37 437.475
GOMX 1 05 Sep 20:28:56 20:33:27 49° 262° (W) 20:38:19 467.674
BRITE-PL 05 Sep 20:28:57 20:32:54 29° 267° (W) 20:37:05 437.365/2234.400
CUBESAT XI-V 05 Sep 20:35:14 20:37:22 13° 297° (WNW) 20:39:16 437.345
CANX-2 05 Sep 20:40:00 20:44:18 77° 258° (WSW) 20:48:35 2200.000
ZACube-1 05 Sep 20:47:57 20:51:09 20° 67° (ENE) 20:54:31 437.345
FUNcube-1 05 Sep 20:50:39 20:53:55 20° 67° (ENE) 20:57:20 145.935
SEEDS 05 Sep 20:51:28 20:55:43 81° 256° (WSW) 20:59:58 437.485
DELFI C3 05 Sep 20:55:08 20:58:02 20° 68° (ENE) 21:01:02 145.870
STRAND 1 05 Sep 20:57:54 21:02:25 32° 292° (WNW) 21:06:52 437.568
COMPASS 1 05 Sep 21:04:05 21:08:17 75° 258° (WSW) 21:12:29 437.405
UWE-3 05 Sep 21:06:10 21:10:27 38° 71° (ENE) 21:14:50 435.000/436.395/437.385
RS-15 05 Sep 21:08:49 21:17:28 23° 12° (NNE) 21:26:32 29.354- 29.394
AAUSAT CUBESAT 2 05 Sep 21:09:19 21:13:30 77° 258° (WSW) 21:17:41 437.432
CUBEBUG 2 05 Sep 21:10:37 21:15:12 55° 73° (ENE) 21:19:53 437.445
BEESAT 3 05 Sep 21:17:47 21:20:07 15° 40° (NE) 21:22:33 437.485
Oscar 11 05 Sep 21:27:21 21:31:41 73° 76° (ENE) 21:36:02 145.826/435.025
DX 1 05 Sep 21:31:42 21:33:28 13° 63° (ENE) 21:35:27 434.975-435.025
UKube-1 05 Sep 21:35:29 21:37:10 12° 63° (ENE) 21:39:03 .
BEESAT 2 05 Sep 21:37:59 21:40:44 17° 42° (NE) 21:43:32 435.950
HO-68 05 Sep 21:49:29 21:55:30 27° 267° (W) 22:01:22 435.675
Cosmos 2504 05 Sep 21:50:14 21:56:37 26° 82° (E) 22:03:29 435.465 / 435.565
DOVE 4 05 Sep 21:56:26 21:58:27 12° 275° (W) 22:00:13 437.250
CINEMA 3 05 Sep 21:58:35 22:02:31 24° 268° (W) 22:06:28 145.822/145.860
Cosmos 2491 05 Sep 22:01:06 22:06:56 19° 280° (W) 22:12:19 435.465 / 435.565
YUBILEINY 05 Sep 22:04:21 22:12:39 43° 288° (WNW) 22:20:55 435.215
CUTE 1.7 + AOD 2 05 Sep 22:04:29 22:05:47 11° 272° (W) 22:06:50 437.475
AISAT 05 Sep 22:14:38 22:18:06 24° 67° (ENE) 22:21:41 437.250
CUSAT 1 05 Sep 22:20:55 22:22:56 13° 79° (E) 22:25:30 437.405
HUMSAT D 05 Sep 22:21:08 22:25:26 72° 76° (ENE) 22:29:46 437.325/437.525
ESTCUBE 1 05 Sep 22:22:26 22:25:44 21° 67° (ENE) 22:29:08 437.505/2401.250
ZACube-1 05 Sep 22:22:49 22:27:12 44° 262° (W) 22:31:37 437.345
FUNcube-1 05 Sep 22:25:37 22:29:58 42° 263° (W) 22:34:20 145.935
50 SAT 05 Sep 22:27:42 22:31:15 33° 72° (ENE) 22:34:50 437.505
DELFI C3 05 Sep 22:29:13 22:32:54 32° 264° (W) 22:36:33 145.870
UNISAT 6 05 Sep 22:39:36 22:43:15 24° 93° (E) 22:46:53 437.425
VELOX 1 05 Sep 22:40:25 22:44:32 41° 71° (ENE) 22:48:43 145.980
UWE-3 05 Sep 22:43:28 22:47:07 22° 268° (W) 22:50:42 435.000/436.395/437.385
CUBEBUG 2 05 Sep 22:49:20 22:52:17 16° 271° (W) 22:55:04 437.445
AIST 2 05 Sep 22:52:29 22:55:38 21° 44° (NE) 22:58:49 435.215
BEESAT 3 05 Sep 22:54:30 22:58:30 67° 240° (WSW) 23:02:26 437.485
NANOSAT C BR1 05 Sep 22:59:30 23:01:27 13° 89° (E) 23:03:35 145.865
QB50P2 05 Sep 23:02:39 23:05:06 15° 90° (E) 23:07:43 145.880/145.840
DX 1 05 Sep 23:04:55 23:09:14 66° 258° (WSW) 23:13:34 434.975-435.025
TIGRISAT 05 Sep 23:05:21 23:09:41 44° 98° (E) 23:13:53 435.000
SPROUT 05 Sep 23:08:00 23:10:33 16° 65° (ENE) 23:13:17 437.525
UKube-1 05 Sep 23:08:31 23:12:48 66° 258° (WSW) 23:17:07 .
QB50P1 05 Sep 23:14:40 23:17:49 20° 93° (E) 23:21:02 145.935-145.965
BEESAT 2 05 Sep 23:15:08 23:19:06 53° 241° (WSW) 23:22:59 435.950
AUBIESAT-1 05 Sep 23:21:20 23:24:21 24° 99° (E) 23:27:15 437.475
RS-15 05 Sep 23:22:30 23:33:47 49° 43° (NE) 23:45:33 29.354- 29.394
ANTELSAT 05 Sep 23:24:46 23:29:18 76° 102° (ESE) 23:33:41 437.575/2403.000
DANDE 05 Sep 23:28:01 23:31:35 33° 89° (E) 23:36:18 436.750
M-CUBED/EXP-1 PRIME 05 Sep 23:31:57 23:35:32 39° 102° (ESE) 23:38:52 437.505
CUBEBUG 1 05 Sep 23:32:50 23:37:09 87° 252° (WSW) 23:41:33 437.445
Cosmos 2504 05 Sep 23:39:55 23:48:10 67° 281° (W) 23:56:47 435.465 / 435.565
PCSat 05 Sep 23:47:08 23:50:49 20° 107° (ESE) 23:54:42 145.827
TISAT 1 05 Sep 23:48:26 23:51:48 24° 68° (ENE) 23:55:16 437.305
AISAT 05 Sep 23:50:32 23:54:32 33° 264° (W) 23:58:32 437.250
BUGSAT 1 05 Sep 23:56:19 00:00:12 34° 97° (E) 00:04:07 437.445
ESTCUBE 1 05 Sep 23:58:12 00:02:22 38° 262° (W) 00:06:34 437.505/2401.250
CUSAT 1 05 Sep 23:59:56 00:04:19 67° 283° (WNW) 00:10:17 437.405
HUMSAT D 06 Sep 00:01:21 00:01:44 10° 273° (W) 00:01:49 437.325/437.525
SO-50 06 Sep 00:02:58 00:07:45 78° 120° (ESE) 00:12:42 436.795
50 SAT 06 Sep 00:03:03 00:05:52 18° 268° (W) 00:08:34 437.505
DUCHIFAT 1 06 Sep 00:13:41 00:18:00 88° 103° (ESE) 00:22:16 145.980
UNISAT 6 06 Sep 00:16:03 00:20:04 31° 291° (WNW) 00:23:57 437.425
VELOX 1 06 Sep 00:18:11 00:21:18 18° 268° (W) 00:24:17 145.980
POLYITAN 1 06 Sep 00:18:14 00:22:34 78° 284° (WNW) 00:26:50 437.675
POPSAT HIP 1 06 Sep 00:18:30 00:22:49 79° 284° (WNW) 00:27:06 437.405
AIST 2 06 Sep 00:30:26 00:34:26 45° 243° (WSW) 00:38:21 435.215
SWISSCUBE 06 Sep 00:31:31 00:34:12 16° 63° (ENE) 00:37:04 437.505
NANOSAT C BR1 06 Sep 00:33:28 00:37:41 54° 286° (WNW) 00:41:50 145.865
QB50P2 06 Sep 00:37:09 00:41:18 46° 287° (WNW) 00:45:23 145.880/145.840
SPROUT 06 Sep 00:42:06 00:46:16 48° 261° (W) 00:50:29 437.525
TIGRISAT 06 Sep 00:42:56 00:46:06 18° 294° (WNW) 00:49:05 435.000
QB50P1 06 Sep 00:49:51 00:53:48 35° 289° (WNW) 00:57:40 145.935-145.965
AUBIESAT-1 06 Sep 00:56:02 00:59:01 22° 298° (WNW) 01:01:47 437.475
GONETS M04 06 Sep 00:59:09 01:04:37 20° 80° (E) 01:10:32
ANTELSAT 06 Sep 01:03:49 01:05:28 12° 298° (WNW) 01:06:53 437.575/2403.000
M-CUBED/EXP-1 PRIME 06 Sep 01:07:44 01:09:59 15° 301° (WNW) 01:12:02 437.505
ITUPSAT 1 06 Sep 01:11:09 01:15:23 33° 69° (ENE) 01:19:40 437.325
DANDE 06 Sep 01:11:40 01:15:02 21° 298° (WNW) 01:19:02 436.750
TISAT 1 06 Sep 01:23:44 01:27:28 29° 265° (W) 01:31:09 437.305
VERMONT LUNAR 06 Sep 01:26:37 01:29:16 28° 159° (SSE) 01:31:55 437.305
PCSat 06 Sep 01:28:29 01:33:49 59° 303° (WNW) 01:39:12 145.827
BUGSAT 1 06 Sep 01:32:11 01:35:28 21° 292° (WNW) 01:38:40 437.445
RS-15 06 Sep 01:35:08 01:46:42 58° 246° (WSW) 01:58:28 29.354- 29.394
Cosmos 2504 06 Sep 01:38:10 01:42:28 14° 305° (NW) 01:46:15 435.465 / 435.565
BEESAT 06 Sep 01:40:01 01:44:44 66° 74° (ENE) 01:49:29 436.000
SO-50 06 Sep 01:45:30 01:48:56 18° 322° (NW) 01:52:18 436.795
SWISSCUBE 06 Sep 02:06:54 02:11:36 61° 259° (W) 02:16:20 437.505
Gurwin Techsat 1B 06 Sep 02:10:07 02:13:43 19° 90° (E) 02:17:30 435.225
Oscar 19 06 Sep 02:21:01 02:26:14 76° 101° (ESE) 02:31:25 437.125/150
STARS 06 Sep 02:22:54 02:25:50 18° 66° (ENE) 02:28:55 437.465
PHONESAT 2.4 06 Sep 02:25:56 02:26:26 10° 147° (SSE) 02:27:04 2401.200-2431.200
ITUPSAT 1 06 Sep 02:49:18 02:53:19 26° 266° (W) 02:57:16 437.325
GONETS M04 06 Sep 02:51:46 03:00:29 84° 279° (W) 03:09:16
KKS-1 06 Sep 02:54:36 02:59:00 64° 74° (ENE) 03:03:27 437.445
VERMONT LUNAR 06 Sep 03:02:27 03:05:26 69° 174° (S) 03:08:24 437.305
AO-7 06 Sep 03:03:08 03:05:31 12° 84° (E) 03:08:38 29.400- 29.500
O/OREOS (USA 219) 06 Sep 03:11:41 03:15:41 29° 58° (ENE) 03:19:43 437.305
PCSat 06 Sep 03:16:20 03:18:31 12° 325° (NW) 03:20:29 145.827
BEESAT 06 Sep 03:20:48 03:23:07 13° 272° (W) 03:25:10 436.000
ITAMSAT 1 06 Sep 03:32:41 03:37:54 87° 103° (ESE) 03:43:07 435.822/435.867
Cosmos 2499 06 Sep 03:33:06 03:41:20 54° 90° (E) 03:49:55 435.465 / 435.565
JAS-2 06 Sep 03:33:32 03:40:07 55° 98° (E) 03:45:54 435.910
Gurwin Techsat 1B 06 Sep 03:48:55 03:54:07 55° 288° (WNW) 03:59:16 435.225
MOZHAYETS 4 06 Sep 03:49:22 03:53:31 35° 71° (ENE) 03:57:44
RS-15 06 Sep 03:54:21 03:57:06 10° 264° (W) 03:58:27 29.354- 29.394
STARS 06 Sep 03:57:43 04:01:58 44° 261° (W) 04:06:14 437.465
HORYU 2 06 Sep 03:58:51 04:01:59 19° 92° (E) 04:05:14 437.375
PHONESAT 2.4 06 Sep 04:00:34 04:03:47 38° 161° (SSE) 04:07:00 2401.200-2431.200
Oscar 19 06 Sep 04:02:05 04:05:02 15° 299° (WNW) 04:07:44 437.125/150
KKS-1 06 Sep 04:34:17 04:36:09 12° 272° (W) 04:37:46 437.445
VERMONT LUNAR 06 Sep 04:38:47 04:41:44 57° 191° (S) 04:44:39 437.305
